Wind_Speed
24 19 27 44 36 32 30 27 33 32 27 28 31 31 24 22 26 27 26 28 24 23 24 30 27 8 9 11 12 17 21 23 26 25 24 22 19 15 13 12 11 11 11 11
24 31 48 26 31 31 33 31 33 29 28 23 25 28 25 24 24 26 28 27 26 24 26 23 18 8 8 11 14 17 21 23 25 22 22 19 15 13 12 11 10 9 10 11
31 45 26 32 32 32 32 33 28 30 24 21 22 28 28 26 27 28 28 29 28 27 24 19 17 8 9 12 16 19 22 24 24 21 17 13 11 6 7 9 11 11 8 9
30 34 34 32 34 35 33 29 27 25 21 18 21 23 25 18 24 23 23 22 22 21 20 19 11 10 12 13 16 19 22 24 21 20 17 15 13 11 9 5 3 4 6 8
31 31 35 35 42 31 36 25 25 25 21 22 24 17 18 21 22 23 24 23 21 20 20 19 11 12 14 16 19 22 23 23 21 17 15 14 9 9 5 5 3 5 5 6
32 27 29 40 34 29 29 27 25 20 17 20 22 20 22 21 20 20 20 16 19 19 17 6 12 16 17 19 22 24 25 21 19 16 13 10 8 3 3 5 2 3 6 6
30 31 28 30 32 36 27 23 16 16 17 21 18 20 23 20 18 17 16 12 5 10 10 12 15 15 20 22 24 25 24 21 18 16 13 10 7 5 4 3 9 6 4 4
24 26 33 27 30 37 31 28 17 28 12 16 22 18 16 17 10 9 11 12 9 8 11 14 15 16 21 24 25 24 22 21 18 15 13 9 7 9 5 3 5 4 4 8
17 30 28 34 25 26 40 27 32 24 20 14 13 16 15 17 14 9 10 14 13 11 14 16 17 16 23 24 23 23 21 19 17 15 12 9 7 2 6 3 2 4 6 7
17 21 31 27 29 32 33 29 22 21 24 15 14 10 8 2 7 13 10 13 13 14 16 16 16 17 22 23 22 21 20 18 16 14 12 11 8 5 4 3 2 6 6 6
21 4 16 29 33 31 26 23 30 21 18 15 11 9 2 5 2 15 14 13 15 17 17 17 17 20 23 22 21 20 18 17 15 14 12 12 8 6 5 4 6 8 7 6
16 6 12 28 28 30 30 27 31 16 22 17 11 4 4 9 7 5 3 11 15 17 18 18 18 19 22 22 21 19 17 16 15 13 11 11 8 6 5 7 7 9 7 6
8 10 13 8 19 28 32 34 26 27 16 19 9 4 8 9 6 1 3 13 15 17 18 18 18 17 16 20 21 19 17 16 16 14 12 9 7 6 6 7 8 8 8 6
10 14 17 6 13 22 28 33 30 28 17 18 19 12 13 14 11 10 7 12 15 17 18 18 17 16 17 20 20 18 17 17 15 13 11 12 8 6 8 8 9 9 8 7
5 17 25 7 23 23 25 28 24 31 20 16 18 14 14 13 13 8 8 12 15 16 17 17 17 16 16 19 19 18 17 17 15 12 10 12 8 9 9 10 9 9 8 8
9 10 17 17 20 32 23 31 27 23 27 18 12 18 12 4 11 7 9 10 13 15 16 16 17 17 16 19 19 18 17 17 15 12 13 11 10 10 10 10 10 9 8 6
8 6 6 16 20 26 14 19 27 25 24 17 12 6 8 6 7 13 9 6 10 13 14 15 16 16 16 20 19 19 18 17 16 14 14 12 12 12 12 11 11 10 8 8
13 10 4 4 12 10 9 8 24 19 20 16 14 4 11 9 5 6 7 7 7 11 13 14 14 14 19 21 21 19 19 18 17 15 15 15 15 14 13 11 9 8 8 7
10 4 5 4 10 12 4 7 4 21 13 10 4 3 10 7 6 8 7 8 8 13 14 14 18 19 20 21 22 21 20 19 17 16 16 16 16 15 13 10 9 7 7 7
5 5 4 6 9 7 8 6 6 5 11 8 6 6 6 7 9 9 8 8 8 14 14 14 21 22 21 22 23 22 21 20 18 18 17 18 17 14 12 10 9 7 6 5
3 2 7 11 7 6 10 11 5 11 6 5 7 8 6 6 9 10 9 6 6 9 6 17 21 21 22 23 23 21 22 20 19 19 18 18 17 15 14 10 9 8 6 8
3 3 6 5 1 5 16 3 4 7 6 8 7 8 7 7 8 8 7 5 5 5 11 18 19 22 24 25 24 21 21 22 21 20 20 19 18 17 15 12 9 8 8 9
0 4 3 3 2 12 14 14 12 10 9 9 7 7 7 8 9 8 6 5 5 6 10 18 20 22 24 26 26 22 23 23 23 22 21 19 19 16 15 13 11 10 8 11
2 7 3 2 9 6 12 12 10 11 9 10 11 8 9 10 10 10 8 5 4 4 10 18 21 20 22 26 26 24 24 24 24 23 22 21 20 16 16 15 13 11 10 8
4 6 5 0 12 10 13 11 9 10 10 11 12 12 11 11 11 12 9 8 4 4 8 16 18 20 24 26 27 25 25 26 25 24 23 22 21 20 18 16 14 12 11 10
3 4 4 2 4 6 11 11 12 12 12 11 12 11 11 11 11 12 10 10 10 6 6 14 19 22 26 27 28 28 27 27 26 23 24 24 22 23 20 19 12 9 8 9
Wind_Direction
204 212 219 220 218 235 241 246 247 250 248 238 257 269 264 251 256 264 274 279 272 269 278 280 275 258 260 246 216 194 189 189 178 186 189 191 192 196 202 216 228 241 252 263
214 216 222 221 229 230 243 252 252 263 264 260 260 268 271 270 281 284 279 277 277 278 275 269 265 174 214 204 188 188 184 176 180 181 190 189 193 194 207 215 220 239 259 257
220 226 227 222 231 234 231 235 245 254 261 263 272 273 272 268 265 263 263 264 261 259 261 268 258 163 183 190 180 177 176 171 178 178 176 171 175 180 197 220 232 220 238 254
234 238 235 224 230 228 236 230 242 255 265 264 251 266 259 264 266 268 273 272 268 260 258 245 228 160 179 175 171 165 164 168 171 163 164 169 179 201 210 216 253 200 246 257
240 229 233 235 227 227 241 234 238 239 247 260 254 260 272 265 266 265 261 256 259 252 244 248 166 161 170 162 161 158 158 165 157 171 166 173 207 192 224 225 211 233 249 257
244 247 234 234 242 228 238 232 241 244 249 247 243 252 267 268 276 284 284 260 250 231 230 159 138 153 153 157 155 154 158 157 160 160 162 193 170 215 214 207 239 245 237 242
243 245 243 239 222 238 224 217 223 226 228 244 243 246 259 274 275 279 291 256 228 109 130 150 154 156 156 154 153 154 156 154 159 158 161 162 167 177 200 242 224 210 217 228
227 231 233 233 230 214 222 206 210 213 216 233 224 243 257 254 254 271 264 235 133 159 154 161 158 151 152 152 153 153 154 156 159 161 164 159 164 185 211 175 325 105 185 201
262 233 227 226 228 235 212 212 216 245 220 245 237 224 239 250 249 246 233 187 151 162 161 155 151 154 151 152 154 153 156 157 162 162 162 162 173 152 78 87 208 133 168 161
281 255 222 224 219 239 223 210 205 225 239 226 242 241 238 191 201 176 197 180 156 155 156 151 152 149 148 152 150 155 156 159 162 162 161 169 159 166 152 163 149 130 162 149
286 285 258 233 203 214 215 202 212 219 228 229 235 249 194 199 219 181 196 165 153 161 153 154 149 146 150 151 151 155 157 160 161 162 170 151 161 176 170 150 156 153 157 159
272 254 263 222 210 215 215 214 203 214 208 235 213 155 82 175 241 356 327 126 153 157 155 154 148 151 154 152 156 160 160 160 164 168 168 160 169 188 151 164 154 148 177 173
357 235 257 222 226 206 215 209 203 220 220 205 215 185 209 142 108 86 139 142 155 155 156 151 152 158 155 157 160 160 163 162 166 171 164 163 164 174 167 161 148 166 157 174
296 260 254 240 217 196 210 202 203 201 217 187 221 129 146 141 115 87 122 142 155 161 156 156 161 161 158 161 162 160 166 164 164 170 164 149 152 161 166 154 154 163 167 168
261 248 244 258 300 281 209 208 199 193 202 217 183 197 173 145 94 90 114 159 158 161 165 163 166 163 159 161 162 162 166 162 163 167 156 120 135 157 144 154 153 159 165 179
281 272 262 248 287 284 191 211 197 197 208 208 171 200 205 256 106 68 94 170 170 167 172 169 169 164 163 162 166 163 166 159 164 166 140 155 137 140 141 146 151 162 167 161
288 326 177 242 256 268 206 211 188 195 199 210 194 204 175 145 64 44 26 14 184 176 177 176 174 168 164 166 167 166 165 162 164 167 146 141 143 141 146 152 159 157 156 164
267 299 281 246 233 229 196 228 194 189 195 211 231 178 57 42 21 4 345 316 277 186 179 178 176 168 169 166 165 168 165 166 167 165 153 147 151 148 152 155 148 154 150 152
241 278 273 213 209 94 190 81 37 194 83 28 328 45 25 15 322 246 36 352 326 303 177 177 176 169 170 171 164 169 166 169 170 164 157 155 151 153 154 152 156 161 142 147
275 224 283 274 227 188 11 26 22 8 112 51 27 48 5 334 249 89 351 342 329 308 168 173 174 168 171 174 170 171 168 172 173 166 164 156 156 153 151 145 152 157 166 146
259 186 240 240 215 120 329 0 156 210 82 44 39 42 17 333 338 319 307 322 310 295 208 172 171 170 174 173 175 178 171 176 175 166 167 160 157 157 140 143 149 157 181 117
280 302 184 270 188 92 346 56 5 62 85 45 34 32 15 340 317 314 311 298 279 258 243 178 173 172 175 175 179 184 177 177 174 169 170 162 157 170 152 150 149 157 138 139
108 354 358 33 64 297 58 62 42 27 41 31 15 18 0 356 341 332 321 311 278 231 227 185 177 173 177 179 182 186 182 180 174 172 172 171 169 182 160 165 163 157 171 151
33 357 28 330 356 73 56 46 34 25 13 5 5 12 11 355 354 353 334 330 286 230 222 191 180 177 179 183 185 188 182 184 177 174 174 175 177 185 170 179 179 176 177 175
349 353 352 63 12 337 13 21 26 13 1 360 0 352 9 356 357 354 353 354 330 286 211 201 188 182 182 184 186 188 183 186 180 178 179 180 185 188 176 195 183 196 183 181
44 350 9 18 341 302 318 343 18 354 356 353 348 344 358 356 356 355 0 358 341 312 245 207 195 191 185 186 187 187 186 186 183 181 184 186 187 186 188 192 179 199 175 196
Height
727 739 723 694 702 698 703 706 703 693 683 694 695 687 678 680 683 683 679 676 671 674 673 672 670 672 678 683 686 690 696 701 707 714 719 723 727 730 732 735 738 741 742 742
723 715 672 702 698 705 708 709 701 693 680 685 688 686 674 672 675 675 676 672 671 669 667 662 662 669 677 682 686 691 695 700 706 712 716 719 723 726 729 731 734 738 739 739
710 671 699 697 698 700 697 702 705 700 688 682 691 691 682 674 672 669 666 664 662 660 658 657 657 667 675 681 685 689 695 700 706 710 714 719 722 725 728 729 732 733 736 737
699 688 682 690 689 687 694 685 694 698 702 712 689 697 679 670 666 661 655 653 650 649 648 648 648 665 675 681 686 690 696 702 706 710 714 718 720 721 722 725 727 731 733 735
682 688 684 682 668 679 670 680 685 690 700 703 699 700 678 663 665 656 646 642 639 639 641 641 644 664 673 681 686 691 697 702 706 710 713 717 717 719 722 725 728 731 732 734
682 672 671 669 667 665 671 680 683 684 693 707 693 694 677 665 654 642 633 629 627 627 630 635 651 664 673 681 687 692 697 702 707 710 713 716 718 719 720 724 725 729 731 733
689 678 664 659 674 664 666 681 705 715 708 694 677 684 661 645 637 634 632 627 622 624 635 645 657 665 673 680 686 692 697 702 707 710 714 716 719 721 723 725 725 727 729 731
686 689 670 651 651 660 661 666 678 702 692 684 664 677 654 629 624 626 621 623 627 636 642 651 658 665 671 678 685 690 697 702 706 710 713 716 719 719 721 724 724 725 728 730
678 668 650 651 648 648 651 658 646 664 650 664 646 637 632 623 624 625 622 623 629 638 645 651 658 664 671 678 684 691 696 701 706 710 713 716 719 719 722 724 725 726 728 729
688 670 645 638 648 638 634 632 671 654 678 677 657 647 650 630 621 620 622 623 626 638 645 652 658 665 672 680 686 692 696 701 705 709 712 715 718 721 723 724 725 727 728 729
697 704 662 642 635 640 634 636 644 648 647 664 671 656 616 623 614 618 616 615 628 637 644 652 658 666 674 680 687 693 697 701 705 708 712 715 717 721 722 724 725 728 730 730
685 693 681 640 619 620 622 629 637 645 656 643 642 649 619 616 617 617 613 618 628 635 644 650 657 666 673 679 686 692 696 700 704 707 710 714 717 721 723 724 726 728 730 731
708 684 679 662 628 619 620 620 623 635 629 651 650 650 617 615 619 619 616 621 631 636 643 650 659 665 671 678 685 691 695 699 702 705 709 713 716 720 723 724 726 728 729 731
728 693 669 661 634 615 619 615 613 628 641 640 642 636 626 625 627 627 626 628 633 638 645 651 658 664 670 677 683 689 693 697 700 703 707 712 716 720 722 725 726 728 729 730
719 687 663 680 663 626 613 610 609 622 626 631 631 631 626 620 626 631 628 631 635 639 645 651 657 662 669 676 682 688 692 696 700 702 705 712 716 719 721 724 725 728 729 729
708 688 669 681 678 644 607 608 610 616 624 620 620 630 614 611 616 627 630 632 637 640 644 651 655 661 668 675 681 686 690 695 700 702 705 711 714 718 722 724 726 728 729 730
703 703 679 695 679 651 626 608 608 614 616 620 634 628 615 621 628 639 641 636 636 637 643 650 656 661 667 674 680 686 690 695 699 701 705 710 715 719 722 724 726 728 730 731
699 697 691 680 677 667 615 597 597 609 616 617 620 625 627 632 637 640 639 639 637 634 641 648 654 661 669 674 679 686 690 694 698 700 705 710 715 719 722 724 726 729 731 733
684 697 692 686 676 640 627 616 613 614 645 642 637 633 642 646 648 648 648 648 643 636 635 645 652 660 668 675 679 684 689 693 697 700 704 709 714 718 721 725 728 730 733 735
685 689 703 677 669 673 656 634 628 624 659 658 654 654 658 656 653 655 654 650 645 639 632 642 650 658 667 674 680 683 687 691 695 699 704 708 713 718 721 725 729 731 733 733
701 702 694 670 657 662 661 639 634 654 680 665 662 662 664 663 661 661 653 649 648 643 635 642 649 657 666 673 680 682 686 690 694 698 703 708 714 719 723 727 730 731 732 734
703 688 673 663 672 676 661 653 655 670 667 668 667 667 667 665 659 655 651 648 646 643 639 640 647 655 665 671 678 681 685 689 693 697 703 708 714 717 723 728 731 732 734 736
704 711 701 709 709 700 679 682 677 671 671 671 670 668 667 663 659 653 649 645 641 641 637 638 645 654 662 669 674 679 684 687 691 696 702 708 714 717 722 727 731 732 734 734
716 714 709 708 708 692 687 687 686 683 679 676 670 668 664 663 656 653 646 642 640 636 636 636 642 650 659 666 672 676 682 686 690 695 701 707 713 716 721 725 729 728 731 731
726 721 716 712 709 696 691 689 690 688 685 680 677 670 665 662 659 655 649 641 637 636 635 636 639 646 655 663 669 674 679 683 687 694 700 705 710 715 719 722 725 726 729 730
722 725 720 718 718 716 702 693 690 689 686 684 682 675 668 665 663 658 652 647 644 638 636 636 638 643 650 658 665 670 675 680 685 692 697 702 706 712 715 719 723 726 728 731